Owatonna, MN

2:56 PM CDT on June 27, 2017 (GMT -0500)
Owatonna Degner Regional

Weather History for KOWA - December, 2013

Change the Weather History Date:

Friday, December 13, 2013

  Actual Average Record
Temperature  
Mean Temperature 14 °F -  
Max Temperature 17 °F 29 °F 53 °F (1998)
Min Temperature 10 °F 12 °F -19 °F (1985)
Degree Days  
Heating Degree Days 52    
Moisture  
Dew Point 9 °F    
Average Humidity 79    
Maximum Humidity 92    
Minimum Humidity 68    
Precipitation  
Precipitation 0.00 in - - ()
Sea Level Pressure  
Sea Level Pressure 30.11 in    
Wind  
Wind Speed 8 mph (ENE)    
Max Wind Speed 17 mph    
Max Gust Speed 22 mph    
Visibility 10 miles    
Events      
Averages and records for this station are not official NWS values.
T = Trace of Precipitation, MM = Missing Value Source: NWS Daily Summary

Daily Weather History Graph

Daily Weather History Graph

Search for Another Location

Airport or City:

Trip Planner

Search our weather history database for the weather conditions in past years. The results will help you decide how hot, cold, wet, or windy it might be!

Date:

Astronomy

Dec. 13, 2013 Rise Set
Actual Time 7:39 AM CST 4:34 PM CST
Civil Twilight 7:06 AM CST 5:07 PM CST
Nautical Twilight 6:30 AM CST 5:44 PM CST
Astronomical Twilight 5:55 AM CST 6:19 PM CST
Moon 2:23 PM CST (12/13) 3:57 AM CST (12/13)
Length of Visible Light 10h 01m
Length of Day
8h 54m
Waxing Gibbous, 88% of the Moon is Illuminated
Dec 13
Waxing Gibbous
Dec 17
Full
Dec 25
Last Quarter
Jan 1
New
Jan 7
First Quarter

Hourly Weather History & Observations

Time (CST) Temp. Windchill Dew Point Humidity Pressure Visibility Wind Dir Wind Speed Gust Speed Precip Events Conditions
12:01 AM 15.8 °F - 12.2 °F 86% 30.09 in 10.0 mi ESE 2.3 mph - N/A   Clear
12:21 AM 14.0 °F - 10.4 °F 86% 30.10 in 10.0 mi ESE 2.3 mph - N/A   Clear
12:41 AM 12.2 °F - 10.4 °F 92% 30.09 in 10.0 mi ESE 2.3 mph - N/A   Clear
1:01 AM 10.4 °F - 6.8 °F 85% 30.09 in 10.0 mi East 1.2 mph - N/A   Clear
1:21 AM 10.4 °F - 8.6 °F 92% 30.08 in 10.0 mi NE 2.3 mph - N/A   Clear
1:41 AM 10.4 °F 0.8 °F 8.6 °F 92% 30.06 in 10.0 mi NE 5.8 mph - N/A   Clear
2:01 AM 12.2 °F - 10.4 °F 92% 30.07 in 10.0 mi East 1.2 mph - N/A   Clear
2:21 AM 12.2 °F 4.3 °F 8.6 °F 85% 30.07 in 10.0 mi ESE 4.6 mph - N/A   Clear
2:41 AM 10.4 °F 2.2 °F 6.8 °F 85% 30.07 in 10.0 mi East 4.6 mph - N/A   Clear
3:01 AM 10.4 °F 4.0 °F 6.8 °F 85% 30.07 in 10.0 mi East 3.5 mph - N/A   Clear
3:21 AM 10.4 °F 2.2 °F 8.6 °F 92% 30.07 in 10.0 mi ENE 4.6 mph - N/A   Scattered Clouds
3:41 AM 12.2 °F - 8.6 °F 85% 30.07 in 10.0 mi ENE 2.3 mph - N/A   Mostly Cloudy
4:01 AM 12.2 °F - 10.4 °F 92% 30.06 in 10.0 mi NE 2.3 mph - N/A   Scattered Clouds
4:21 AM 12.2 °F 2.9 °F 10.4 °F 92% 30.05 in 10.0 mi ENE 5.8 mph - N/A   Clear
4:41 AM 14.0 °F 2.9 °F 10.4 °F 86% 30.05 in 10.0 mi ENE 8.1 mph - N/A   Clear
5:01 AM 15.8 °F 5.1 °F 12.2 °F 86% 30.06 in 10.0 mi ENE 8.1 mph - N/A   Clear
5:21 AM 15.8 °F 4.2 °F 12.2 °F 86% 30.07 in 10.0 mi ENE 9.2 mph - N/A   Mostly Cloudy
5:41 AM 15.8 °F 4.2 °F 10.4 °F 79% 30.07 in 10.0 mi ENE 9.2 mph - N/A   Scattered Clouds
6:01 AM 15.8 °F 3.4 °F 10.4 °F 79% 30.08 in 10.0 mi ENE 10.4 mph - N/A   Clear
6:21 AM 15.8 °F 2.7 °F 10.4 °F 79% 30.07 in 10.0 mi ENE 11.5 mph - N/A   Clear
7:01 AM 15.8 °F 3.4 °F 10.4 °F 79% 30.08 in 10.0 mi ENE 10.4 mph - N/A   Clear
7:21 AM 15.8 °F 3.4 °F 10.4 °F 79% 30.08 in 10.0 mi NE 10.4 mph - N/A   Clear
7:41 AM 15.8 °F 3.4 °F 10.4 °F 79% 30.09 in 10.0 mi ENE 10.4 mph - N/A   Clear
8:01 AM 15.8 °F 3.4 °F 10.4 °F 79% 30.10 in 10.0 mi ENE 10.4 mph - N/A   Clear
8:21 AM 15.8 °F 3.4 °F 10.4 °F 79% 30.11 in 10.0 mi ENE 10.4 mph - N/A   Clear
8:41 AM 15.8 °F 1.4 °F 10.4 °F 79% 30.11 in 10.0 mi ENE 13.8 mph 17.3 mph N/A   Clear
9:01 AM 15.8 °F 2.7 °F 10.4 °F 79% 30.10 in 10.0 mi ENE 11.5 mph - N/A   Clear
9:21 AM 15.8 °F 1.4 °F 10.4 °F 79% 30.10 in 10.0 mi ENE 13.8 mph - N/A   Clear
9:41 AM 15.8 °F 0.3 °F 10.4 °F 79% 30.11 in 10.0 mi ENE 16.1 mph - N/A   Clear
10:01 AM 15.8 °F 0.9 °F 10.4 °F 79% 30.11 in 10.0 mi ENE 15.0 mph 19.6 mph N/A   Clear
10:21 AM 15.8 °F -0.2 °F 10.4 °F 79% 30.11 in - NE 17.3 mph - N/A   Clear
11:01 AM 17.6 °F 3.2 °F 10.4 °F 73% 30.11 in 10.0 mi ENE 15.0 mph - N/A   Clear
11:21 AM 17.6 °F 3.2 °F 10.4 °F 73% 30.10 in - ENE 15.0 mph 19.6 mph N/A   Clear
11:41 AM 17.6 °F 3.2 °F 10.4 °F 73% 30.10 in 10.0 mi ENE 15.0 mph - N/A   Clear
12:01 PM 17.6 °F 3.2 °F 10.4 °F 73% 30.08 in - ENE 15.0 mph 20.7 mph N/A   Clear
12:21 PM 17.6 °F 3.7 °F 10.4 °F 73% 30.08 in 10.0 mi ENE 13.8 mph 18.4 mph N/A   Clear
12:41 PM 17.6 °F 4.3 °F 10.4 °F 73% 30.10 in 10.0 mi ENE 12.7 mph 18.4 mph N/A   Clear
1:01 PM 17.6 °F 5.0 °F 10.4 °F 73% 30.10 in 10.0 mi ENE 11.5 mph - N/A   Clear
1:41 PM 17.6 °F 3.7 °F 10.4 °F 73% 30.09 in - NE 13.8 mph - N/A   Clear
2:01 PM 17.6 °F 3.7 °F 10.4 °F 73% 30.09 in - NE 13.8 mph - N/A   Clear
2:21 PM 17.6 °F 4.3 °F 10.4 °F 73% 30.09 in - NE 12.7 mph 18.4 mph N/A   Clear
2:41 PM 17.6 °F 3.7 °F 10.4 °F 73% 30.09 in - NE 13.8 mph - N/A   Clear
3:01 PM 17.6 °F 5.7 °F 10.4 °F 73% 30.10 in - NE 10.4 mph - N/A   Clear
3:21 PM 17.6 °F 3.7 °F 10.4 °F 73% 30.10 in - NE 13.8 mph 19.6 mph N/A   Clear
3:41 PM 17.6 °F 5.7 °F 10.4 °F 73% 30.10 in 10.0 mi NE 10.4 mph 17.3 mph N/A   Clear
4:01 PM 15.8 °F 2.1 °F 8.6 °F 73% 30.11 in - NE 12.7 mph - N/A   Clear
4:21 PM 15.8 °F 1.4 °F 8.6 °F 73% 30.11 in 10.0 mi NE 13.8 mph 18.4 mph N/A   Clear
4:41 PM 15.8 °F 2.1 °F 8.6 °F 73% 30.12 in 10.0 mi NE 12.7 mph - N/A   Clear
5:01 PM 15.8 °F 2.7 °F 8.6 °F 73% 30.13 in 10.0 mi NE 11.5 mph 19.6 mph N/A   Clear
5:21 PM 15.8 °F 2.7 °F 8.6 °F 73% 30.13 in 10.0 mi NE 11.5 mph - N/A   Clear
5:41 PM 15.8 °F 1.4 °F 8.6 °F 73% 30.13 in 10.0 mi NE 13.8 mph - N/A   Clear
6:01 PM 15.8 °F 0.3 °F 8.6 °F 73% 30.13 in - NE 16.1 mph 21.9 mph N/A   Clear
6:33 PM 15.8 °F 2.1 °F 8.6 °F 73% 30.15 in - NE 12.7 mph - N/A   Clear
6:48 PM 15.8 °F 2.7 °F 6.8 °F 68% 30.15 in 10.0 mi NE 11.5 mph 18.4 mph N/A   Clear
7:01 PM 15.8 °F 2.1 °F 6.8 °F 68% 30.15 in 10.0 mi NE 12.7 mph 19.6 mph N/A   Clear
7:21 PM 14.0 °F -0.2 °F 6.8 °F 73% 30.16 in 10.0 mi NE 12.7 mph - N/A   Clear
7:41 PM 14.0 °F -0.2 °F 6.8 °F 73% 30.17 in 10.0 mi NE 12.7 mph 18.4 mph N/A   Clear
8:01 PM 14.0 °F 1.2 °F 6.8 °F 73% 30.18 in 10.0 mi NE 10.4 mph - N/A   Clear
8:21 PM 14.0 °F 1.2 °F 6.8 °F 73% 30.17 in 10.0 mi NE 10.4 mph 17.3 mph N/A   Clear
8:41 PM 12.2 °F -1.0 °F 6.8 °F 79% 30.16 in 10.0 mi NE 10.4 mph - N/A   Clear
9:01 PM 12.2 °F -1.0 °F 6.8 °F 79% 30.17 in 10.0 mi NE 10.4 mph - N/A   Clear
9:21 PM 12.2 °F -0.2 °F 6.8 °F 79% 30.18 in 10.0 mi NE 9.2 mph - N/A   Clear
9:41 PM 12.2 °F -1.0 °F 6.8 °F 79% 30.18 in 10.0 mi NE 10.4 mph - N/A   Clear
10:01 PM 12.2 °F -1.8 °F 6.8 °F 79% 30.18 in 10.0 mi NE 11.5 mph - N/A   Clear
10:21 PM 12.2 °F -2.5 °F 6.8 °F 79% 30.18 in 10.0 mi NE 12.7 mph - N/A   Clear
10:41 PM 12.2 °F -1.8 °F 6.8 °F 79% 30.19 in 10.0 mi NE 11.5 mph - N/A   Clear
11:01 PM 12.2 °F -0.2 °F 6.8 °F 79% 30.19 in 10.0 mi NE 9.2 mph - N/A   Clear
11:21 PM 12.2 °F 0.7 °F 6.8 °F 79% 30.19 in 10.0 mi NE 8.1 mph - N/A   Clear
11:41 PM 12.2 °F -0.2 °F 6.8 °F 79% 30.19 in 10.0 mi NE 9.2 mph - N/A   Scattered Clouds